Satellite-Ground Cal/Val Site Overpasses Predictions

Prediction of Satellite NPP Overpassing Cal/Val Site: Antarctic Dome C

Ground Cal/Val Site Location: Latitude: -75.10, Longitude: 123.35; Satellite-Ground Site NADIR distance within 100 km.

Table of predicted overpasses for the next 14.0 days since TLE Epoch: 6/25/2022
Interval Starting Time Ending Time Minimum Distance Time Minimum Distance (km)
1 06/25/2022 15:01:12 06/25/2022 15:01:36 06/25/2022 15:01:24 56.88
2 06/26/2022 14:42:24 06/26/2022 14:42:48 06/26/2022 14:42:36 52.03
3 06/27/2022 07:44:05 06/27/2022 07:44:26 06/27/2022 07:44:16 69.00
4 06/28/2022 07:25:14 06/28/2022 07:25:41 06/28/2022 07:25:27 38.88
5 06/30/2022 15:07:42 06/30/2022 15:07:51 06/30/2022 15:07:47 95.15
6 07/01/2022 14:48:44 07/01/2022 14:49:13 07/01/2022 14:48:58 15.96
7 07/03/2022 07:31:35 07/03/2022 07:32:04 07/03/2022 07:31:49 3.38
8 07/06/2022 14:55:05 07/06/2022 14:55:34 07/06/2022 14:55:19 20.99
9 07/07/2022 14:36:24 07/07/2022 14:36:39 07/07/2022 14:36:32 85.93
